"Platform","Spectacle Reef Light Station"
"NDBC ID","SRLM4"
"Latitude (deg)",45.77320
"Longitude (deg)",-84.13670
"Water Depth (m)",1.2
"Sensor Device","Campbell CR1000 Logger analog input"
"Sensor Type","Solar panel voltage"
"Sensor Units","voltage"
"Measurement","2 minute average of data samples taken at 5 second interval"
"Time means","Time at beginning of averaging period (UTC time zone)"

"Note:","This data was collected for research purposes."
"Note:","Minimal quality checking has been performed so data may contain known or unknown errors."
"Note:","Data provided by NOAA. Please credit NOAA."
"Note:","For more info see www.glerl.noaa.gov/res/recon"

"Time (UTC)","Solar"
"YYYY/MM/DD HH:MM","volts"
2024/05/12 00:02, 14.37418
2024/05/12 00:04, 14.32376
2024/05/12 00:06, 14.54004
2024/05/12 00:08, 14.29979
2024/05/12 00:10, 14.39534
2024/05/12 00:12, 14.16464
2024/05/12 00:14, 14.24983
2024/05/12 00:16, 14.24734
2024/05/12 00:18, 14.16177
2024/05/12 00:20, 14.28421
2024/05/12 00:22, 14.09254
2024/05/12 00:24, 14.06003
2024/05/12 00:26, 14.10847
2024/05/12 00:28, 13.98457
2024/05/12 00:30, 14.11754
2024/05/12 00:32, 14.02024
2024/05/12 00:34, 13.9757
2024/05/12 00:36, 14.02041
2024/05/12 00:38, 13.90189
2024/05/12 00:40, 13.84104
2024/05/12 00:42, 14.46966
2024/05/12 00:44, 16.18632
2024/05/12 00:46, 15.67403
2024/05/12 00:48, 15.3208
2024/05/12 00:50, 14.81602
2024/05/12 00:52, 14.30025
2024/05/12 00:54, 13.80561
2024/05/12 00:56, 13.37339
2024/05/12 00:58, 12.97507
2024/05/12 01:00, 12.49669
2024/05/12 01:02, 11.87632
2024/05/12 01:04, 11.11047
2024/05/12 01:06, 10.29445
2024/05/12 01:08, 9.465541
2024/05/12 01:10, 8.61673
2024/05/12 01:12, 7.727664
2024/05/12 01:14, 6.837092
2024/05/12 01:16, 5.986822
2024/05/12 01:18, 5.184314
2024/05/12 01:20, 4.415102
2024/05/12 01:22, 3.672881
2024/05/12 01:24, 2.960836
2024/05/12 01:26, 2.288384
2024/05/12 01:28, 1.692412
2024/05/12 01:30, 1.215522
2024/05/12 01:32, 0.8619612
2024/05/12 01:34, 0.6121658
2024/05/12 01:36, 0.4340338
2024/05/12 01:38, 0.3089871
2024/05/12 01:40, 0.2190942
2024/05/12 01:42, 0.1540671
2024/05/12 01:44, 0.1083865
2024/05/12 01:46, 0.07574459
2024/05/12 01:48, 0.05216043
2024/05/12 01:50, 0.03495984
2024/05/12 01:52, 0.02247151
2024/05/12 01:54, 0.01260468
2024/05/12 01:56, 0.005319958
2024/05/12 04:32, 0.009789177
2024/05/12 09:00, 0.001455585
2024/05/12 09:04, 0.01219603
2024/05/12 09:06, 0.02957632
2024/05/12 09:08, 0.04729575
2024/05/12 09:10, 0.06856521
2024/05/12 09:12, 0.09738173
2024/05/12 09:14, 0.1350145
2024/05/12 09:16, 0.185116
2024/05/12 09:18, 0.2540865
2024/05/12 09:20, 0.3522249
2024/05/12 09:22, 0.4877435
2024/05/12 09:24, 0.6667316
2024/05/12 09:26, 0.8950214
2024/05/12 09:28, 1.186204
2024/05/12 09:30, 1.546821
2024/05/12 09:32, 1.986321
2024/05/12 09:34, 2.512271
2024/05/12 09:36, 3.124154
2024/05/12 09:38, 3.807854
2024/05/12 09:40, 4.548216
2024/05/12 09:42, 5.354587
2024/05/12 09:44, 6.21474
2024/05/12 09:46, 7.104846
2024/05/12 09:48, 7.96398
2024/05/12 09:50, 8.811208
2024/05/12 09:52, 9.745441
2024/05/12 09:54, 10.98649
2024/05/12 09:56, 12.54237
2024/05/12 09:58, 13.75691
2024/05/12 10:00, 14.52236
2024/05/12 10:02, 15.09578
2024/05/12 10:04, 15.51023
2024/05/12 10:06, 15.80311
2024/05/12 10:08, 16.17184
2024/05/12 10:10, 14.9788
2024/05/12 10:12, 13.79656
2024/05/12 10:14, 14.0244
2024/05/12 10:16, 13.73452
2024/05/12 10:18, 13.59533
2024/05/12 10:20, 13.86455
2024/05/12 10:22, 14.00015
2024/05/12 10:24, 15.00828
2024/05/12 10:26, 15.02093
2024/05/12 10:28, 14.69191
2024/05/12 10:30, 14.65861
2024/05/12 10:32, 14.8036
2024/05/12 10:34, 15.23019
2024/05/12 10:36, 15.57987
2024/05/12 10:38, 15.6927
2024/05/12 10:40, 16.10081
2024/05/12 10:42, 16.32467
2024/05/12 10:44, 16.74281
2024/05/12 10:46, 17.10165
2024/05/12 10:48, 17.38369
2024/05/12 10:50, 17.44158
2024/05/12 10:52, 17.5089
2024/05/12 10:54, 17.53368
2024/05/12 10:56, 17.53588
2024/05/12 10:58, 17.62031
2024/05/12 11:00, 17.63762
2024/05/12 11:02, 17.56302
2024/05/12 11:04, 17.5753
2024/05/12 11:06, 17.61751
2024/05/12 11:08, 17.65582
2024/05/12 11:10, 17.69595
2024/05/12 11:12, 18.98623
2024/05/12 11:14, 19.64942
2024/05/12 11:16, 19.93073
2024/05/12 11:18, 20.23129
2024/05/12 11:20, 20.38607
2024/05/12 11:22, 20.47207
2024/05/12 11:24, 20.57957
2024/05/12 11:26, 20.71548
2024/05/12 11:28, 20.81044
2024/05/12 11:30, 20.69579
2024/05/12 11:32, 20.60801
2024/05/12 11:34, 20.47642
2024/05/12 11:36, 20.6916
2024/05/12 11:38, 20.5697
2024/05/12 11:40, 20.12858
2024/05/12 11:42, 19.79497
2024/05/12 11:44, 19.83996
2024/05/12 11:46, 19.95858
2024/05/12 11:48, 20.18091
2024/05/12 11:50, 20.62379
2024/05/12 11:52, 20.32768
2024/05/12 11:54, 20.09003
2024/05/12 11:56, 20.26815
2024/05/12 11:58, 20.56846
2024/05/12 12:00, 20.62777
2024/05/12 12:02, 20.60887
2024/05/12 12:04, 21.0906
2024/05/12 12:06, 21.261
2024/05/12 12:08, 21.31137
2024/05/12 12:10, 21.29223
2024/05/12 12:12, 21.23501
2024/05/12 12:14, 21.18617
2024/05/12 12:16, 21.16234
2024/05/12 12:18, 21.18625
2024/05/12 12:20, 21.21538
2024/05/12 12:22, 21.21911
2024/05/12 12:24, 21.20155
2024/05/12 12:26, 21.20717
2024/05/12 12:28, 21.25885
2024/05/12 12:30, 21.27841
2024/05/12 12:32, 21.28715
2024/05/12 12:34, 21.28766
2024/05/12 12:36, 21.29763
2024/05/12 12:38, 21.32193
2024/05/12 12:40, 21.3141
2024/05/12 12:42, 21.32025
2024/05/12 12:44, 21.31671
2024/05/12 12:46, 21.284
2024/05/12 12:48, 21.27325
2024/05/12 12:50, 21.28121
2024/05/12 12:52, 21.26444
2024/05/12 12:54, 21.21001
2024/05/12 12:56, 21.16703
2024/05/12 12:58, 21.12094
2024/05/12 13:00, 21.0511
2024/05/12 13:02, 20.85505
2024/05/12 13:04, 20.97831
2024/05/12 13:06, 20.99417
2024/05/12 13:08, 21.07669
2024/05/12 13:10, 21.07377
2024/05/12 13:12, 21.05468
2024/05/12 13:14, 21.02338
2024/05/12 13:16, 21.04219
2024/05/12 13:18, 21.0806
2024/05/12 13:20, 21.12114
2024/05/12 13:22, 21.11114
2024/05/12 13:24, 21.07273
2024/05/12 13:26, 20.98889
2024/05/12 13:28, 20.55773
2024/05/12 13:30, 20.29559
2024/05/12 13:32, 20.3502
2024/05/12 13:34, 20.57698
2024/05/12 13:36, 20.58426
2024/05/12 13:38, 20.6591
2024/05/12 13:40, 20.66447
2024/05/12 13:42, 20.73759
2024/05/12 13:44, 20.7506
2024/05/12 13:46, 20.80935
2024/05/12 13:48, 20.77855
2024/05/12 13:50, 20.90828
2024/05/12 13:52, 20.97861
2024/05/12 13:54, 20.47082
2024/05/12 13:56, 20.52211
2024/05/12 13:58, 20.85526
2024/05/12 14:00, 20.49124
2024/05/12 14:02, 20.69653
2024/05/12 14:04, 20.81522
2024/05/12 14:06, 20.82808
2024/05/12 14:08, 20.83642
2024/05/12 14:10, 20.26687
2024/05/12 14:12, 19.77755
2024/05/12 14:14, 19.67754
2024/05/12 14:16, 19.62139
2024/05/12 14:18, 19.52195
2024/05/12 14:20, 19.39957
2024/05/12 14:22, 19.2735
2024/05/12 14:24, 19.13979
2024/05/12 14:26, 19.04918
2024/05/12 14:28, 19.07691
2024/05/12 14:30, 19.11864
2024/05/12 14:32, 19.00593
2024/05/12 14:34, 18.80402
2024/05/12 14:36, 18.72478
2024/05/12 14:38, 18.87346
2024/05/12 14:40, 19.01735
2024/05/12 14:42, 19.24959
2024/05/12 14:44, 19.32998
2024/05/12 14:46, 19.34219
2024/05/12 14:48, 19.42357
2024/05/12 14:50, 19.518
2024/05/12 14:52, 19.7253
2024/05/12 14:54, 19.92381
2024/05/12 14:56, 19.91297
2024/05/12 14:58, 20.03403
2024/05/12 15:00, 20.67301
2024/05/12 15:02, 20.84245
2024/05/12 15:04, 21.06594
2024/05/12 15:06, 20.75062
2024/05/12 15:08, 20.46962
2024/05/12 15:10, 20.0658
2024/05/12 15:12, 19.52886
2024/05/12 15:14, 18.91627
2024/05/12 15:16, 17.87251
2024/05/12 15:18, 16.5995
2024/05/12 15:20, 16.41726
2024/05/12 15:22, 16.53859
2024/05/12 15:24, 16.66467
2024/05/12 15:26, 16.72981
2024/05/12 15:28, 16.79381
2024/05/12 15:30, 16.76506
2024/05/12 15:32, 16.77965
2024/05/12 15:34, 16.58462
2024/05/12 15:36, 16.57126
2024/05/12 15:38, 16.47025
2024/05/12 15:40, 16.34111
2024/05/12 15:42, 16.13029
2024/05/12 15:44, 16.12892
2024/05/12 15:46, 16.26866
2024/05/12 15:48, 16.14323
2024/05/12 15:50, 16.1626
2024/05/12 15:52, 16.28842
2024/05/12 15:54, 16.44023
2024/05/12 15:56, 16.72162
2024/05/12 15:58, 16.52719
2024/05/12 16:00, 16.31078
2024/05/12 16:02, 16.27769
2024/05/12 16:04, 16.22922
2024/05/12 16:06, 16.27811
2024/05/12 16:08, 16.5512
2024/05/12 16:10, 16.88053
2024/05/12 16:12, 16.85361
2024/05/12 16:14, 18.01593
2024/05/12 16:16, 19.38297
2024/05/12 16:18, 19.51074
2024/05/12 16:20, 19.71977
2024/05/12 16:22, 20.02644
2024/05/12 16:24, 19.79771
2024/05/12 16:26, 19.78409
2024/05/12 16:28, 19.98143
2024/05/12 16:30, 20.25972
2024/05/12 16:32, 20.29725
2024/05/12 16:34, 20.15112
2024/05/12 16:36, 19.90279
2024/05/12 16:38, 19.40473
2024/05/12 16:40, 18.31673
2024/05/12 16:42, 16.70217
2024/05/12 16:44, 17.91503
2024/05/12 16:46, 19.07283
2024/05/12 16:48, 19.43497
2024/05/12 16:50, 19.01861
2024/05/12 16:52, 19.12062
2024/05/12 16:54, 19.84608
2024/05/12 16:56, 20.12893
2024/05/12 16:58, 20.83812
2024/05/12 17:00, 20.94463
2024/05/12 17:02, 20.6859
2024/05/12 17:04, 20.93072
2024/05/12 17:06, 21.2215
2024/05/12 17:08, 21.37281
2024/05/12 17:10, 21.23448
2024/05/12 17:12, 20.91041
2024/05/12 17:14, 20.83018
2024/05/12 17:16, 20.96348
2024/05/12 17:18, 21.0516
2024/05/12 17:20, 20.87559
2024/05/12 17:22, 20.86325
2024/05/12 17:24, 21.19472
2024/05/12 17:26, 20.86235
2024/05/12 17:28, 20.64164
2024/05/12 17:30, 20.60794
2024/05/12 17:32, 20.59547
2024/05/12 17:34, 20.7013
2024/05/12 17:36, 20.83571
2024/05/12 17:38, 20.94879
2024/05/12 17:40, 20.89058
2024/05/12 17:42, 20.97016
2024/05/12 17:44, 21.0148
2024/05/12 17:46, 21.13902
2024/05/12 17:48, 21.1118
2024/05/12 17:50, 21.00779
2024/05/12 17:52, 20.78634
2024/05/12 17:54, 20.64868
2024/05/12 17:56, 20.63168
2024/05/12 17:58, 20.60753
2024/05/12 18:00, 20.56359
2024/05/12 18:02, 20.23564
2024/05/12 18:04, 20.77957
2024/05/12 18:06, 20.78431
2024/05/12 18:08, 20.57427
2024/05/12 18:10, 20.42938
2024/05/12 18:12, 20.22902
2024/05/12 18:14, 20.26912
2024/05/12 18:16, 20.58306
2024/05/12 18:18, 20.6062
2024/05/12 18:20, 20.48891
2024/05/12 18:22, 20.26751
2024/05/12 18:24, 20.2007
2024/05/12 18:26, 20.05659
2024/05/12 18:28, 20.0167
2024/05/12 18:30, 19.94155
2024/05/12 18:32, 19.98357
2024/05/12 18:34, 19.93452
2024/05/12 18:36, 20.11847
2024/05/12 18:38, 21.05446
2024/05/12 18:40, 21.29006
2024/05/12 18:42, 21.08367
2024/05/12 18:44, 21.03335
2024/05/12 18:46, 21.12921
2024/05/12 18:48, 20.7228
2024/05/12 18:50, 20.76417
2024/05/12 18:52, 20.88729
2024/05/12 18:54, 20.76227
2024/05/12 18:56, 20.41748
2024/05/12 18:58, 20.34874
2024/05/12 19:00, 20.40607
2024/05/12 19:02, 20.24867
2024/05/12 19:04, 21.24082
2024/05/12 19:06, 20.99608
2024/05/12 19:08, 20.5695
2024/05/12 19:10, 20.36335
2024/05/12 19:12, 20.34281
2024/05/12 19:14, 20.24108
2024/05/12 19:16, 20.0422
2024/05/12 19:18, 20.00977
2024/05/12 19:20, 19.66115
2024/05/12 19:22, 19.3616
2024/05/12 19:24, 19.18314
2024/05/12 19:26, 19.38307
2024/05/12 19:28, 19.94886
2024/05/12 19:30, 20.19077
2024/05/12 20:02, 17.72582
2024/05/12 20:04, 18.29326
2024/05/12 20:06, 18.07194
2024/05/12 20:08, 16.43418
2024/05/12 20:10, 15.55622
2024/05/12 20:12, 15.49545
2024/05/12 20:14, 15.89089
2024/05/12 20:16, 16.02744
2024/05/12 20:18, 16.17707
2024/05/12 20:20, 16.12077
2024/05/12 20:22, 16.2561
2024/05/12 20:24, 16.109
2024/05/12 20:26, 16.11451
2024/05/12 20:28, 15.86208
2024/05/12 20:30, 15.83462
2024/05/12 20:32, 15.96576
2024/05/12 20:34, 16.06368
2024/05/12 20:36, 16.10026
2024/05/12 20:38, 16.18569
2024/05/12 20:40, 17.02488
2024/05/12 20:42, 18.91103
2024/05/12 20:44, 19.51001
2024/05/12 20:46, 20.09579
2024/05/12 20:48, 20.23141
2024/05/12 20:50, 19.90975
2024/05/12 20:52, 19.55287
2024/05/12 20:54, 19.44509
2024/05/12 20:56, 19.82826
2024/05/12 20:58, 19.34473
2024/05/12 21:00, 17.98886
2024/05/12 21:02, 16.00612
2024/05/12 21:04, 15.89694
2024/05/12 21:06, 16.1455
2024/05/12 21:08, 16.86958
2024/05/12 21:10, 18.50039
2024/05/12 21:12, 18.97523
2024/05/12 21:14, 19.69873
2024/05/12 21:16, 19.9811
2024/05/12 21:18, 20.01183
2024/05/12 21:20, 19.97874
2024/05/12 21:22, 20.06986
2024/05/12 21:24, 19.99397
2024/05/12 21:26, 19.74167
2024/05/12 21:28, 19.35197
2024/05/12 21:30, 18.84274
2024/05/12 21:32, 18.57403
2024/05/12 21:34, 18.11649
2024/05/12 21:36, 17.18879
2024/05/12 21:38, 17.39062
2024/05/12 21:40, 17.60755
2024/05/12 21:42, 17.56431
2024/05/12 21:44, 18.0241
2024/05/12 21:46, 18.45801
2024/05/12 21:48, 18.83708
2024/05/12 21:50, 19.20481
2024/05/12 21:52, 19.47384
2024/05/12 21:54, 19.6989
2024/05/12 21:56, 19.70374
2024/05/12 21:58, 19.31353
2024/05/12 22:00, 18.13272
2024/05/12 22:02, 16.08658
2024/05/12 22:04, 15.80993
2024/05/12 22:06, 15.75098
2024/05/12 22:08, 15.47371
2024/05/12 22:10, 15.23486
2024/05/12 22:12, 15.42463
2024/05/12 22:14, 15.23585
2024/05/12 22:16, 15.36495
2024/05/12 22:18, 15.21867
2024/05/12 22:20, 15.23212
2024/05/12 22:22, 15.17715
2024/05/12 22:24, 15.10157
2024/05/12 22:26, 15.20896
2024/05/12 22:28, 15.01736
2024/05/12 22:30, 15.2879
2024/05/12 22:32, 15.11634
2024/05/12 22:34, 15.03918
2024/05/12 22:36, 15.10746
2024/05/12 22:38, 14.98961
2024/05/12 22:40, 15.27049
2024/05/12 22:42, 15.08094
2024/05/12 22:44, 15.07957
2024/05/12 22:46, 14.99291
2024/05/12 22:48, 14.94876
2024/05/12 22:50, 14.87419
2024/05/12 22:52, 14.86224
2024/05/12 22:54, 14.75801
2024/05/12 22:56, 14.81284
2024/05/12 22:58, 14.83282
2024/05/12 23:00, 14.84335
2024/05/12 23:02, 14.79759
2024/05/12 23:04, 15.04368
2024/05/12 23:06, 15.00392
2024/05/12 23:08, 15.03416
2024/05/12 23:10, 15.25152
2024/05/12 23:12, 15.27423
2024/05/12 23:14, 15.55729
2024/05/12 23:16, 15.34789
2024/05/12 23:18, 15.27407
2024/05/12 23:20, 15.33915
2024/05/12 23:22, 15.2481
2024/05/12 23:24, 15.16491
2024/05/12 23:26, 14.88291
2024/05/12 23:28, 14.83574
2024/05/12 23:30, 14.74
2024/05/12 23:32, 14.54593
2024/05/12 23:34, 14.55333
2024/05/12 23:36, 14.3868
2024/05/12 23:38, 14.47485
2024/05/12 23:40, 14.39101
2024/05/12 23:42, 14.23084
2024/05/12 23:44, 14.28361
2024/05/12 23:46, 14.18671
2024/05/12 23:48, 14.25369
2024/05/12 23:50, 14.1376
2024/05/12 23:52, 14.11071
2024/05/12 23:54, 14.04459
2024/05/12 23:56, 14.07113
2024/05/12 23:58, 14.29447
2024/05/13 00:00, 14.05379
2024/05/13 00:02, 13.94825
2024/05/13 00:04, 14.20971
2024/05/13 00:06, 14.13795
2024/05/13 00:08, 14.42791
2024/05/13 00:10, 14.11898
2024/05/13 00:12, 14.14353
2024/05/13 00:14, 14.12798
2024/05/13 00:16, 14.09506
2024/05/13 00:18, 14.23274
2024/05/13 00:20, 14.03633
2024/05/13 00:22, 13.98914
2024/05/13 00:24, 13.99646
2024/05/13 00:26, 13.99022
2024/05/13 00:28, 14.03864
2024/05/13 00:30, 13.94303
2024/05/13 00:32, 13.87892
2024/05/13 00:34, 13.88251
2024/05/13 00:36, 13.835
2024/05/13 00:38, 15.9003
2024/05/13 00:40, 15.37871
2024/05/13 00:42, 13.82618
2024/05/13 00:44, 13.82896
2024/05/13 00:46, 13.90936
2024/05/13 00:48, 14.35713
2024/05/13 00:50, 16.14461
2024/05/13 00:52, 15.58192
2024/05/13 00:54, 15.10216
2024/05/13 00:56, 14.62964
2024/05/13 00:58, 14.13894
2024/05/13 01:00, 13.62293
2024/05/13 01:02, 12.93346
2024/05/13 01:04, 12.202
2024/05/13 01:06, 11.43412
2024/05/13 01:08, 10.64622
2024/05/13 01:10, 9.665772
2024/05/13 01:12, 8.548802
2024/05/13 01:14, 7.608957
2024/05/13 01:16, 6.846677
2024/05/13 01:18, 6.142332
2024/05/13 01:20, 5.454174
2024/05/13 01:22, 4.720067
2024/05/13 01:24, 3.880546
2024/05/13 01:26, 2.978782
2024/05/13 01:28, 2.17604
2024/05/13 01:30, 1.563379
2024/05/13 01:32, 1.09618
2024/05/13 01:34, 0.7399046
2024/05/13 01:36, 0.4828507
2024/05/13 01:38, 0.3090729
2024/05/13 01:40, 0.1942419
2024/05/13 01:42, 0.1251857
2024/05/13 01:44, 0.08355021
2024/05/13 01:46, 0.0586319
2024/05/13 01:48, 0.04203759
2024/05/13 01:50, 0.03039086
2024/05/13 01:52, 0.02358613
2024/05/13 01:54, 0.01718915
2024/05/13 01:56, 0.008405107
2024/05/13 01:58, 0.00170548
2024/05/13 09:06, 0.009659735
2024/05/13 09:08, 0.01973747
2024/05/13 09:10, 0.03250881
2024/05/13 09:12, 0.05015717
2024/05/13 09:14, 0.07393587
2024/05/13 09:16, 0.1074885
2024/05/13 09:18, 0.1528171
2024/05/13 09:20, 0.214755
2024/05/13 09:22, 0.3005168
2024/05/13 09:24, 0.4192865
2024/05/13 09:26, 0.5835508
2024/05/13 09:28, 0.8110716
2024/05/13 09:30, 1.124117
2024/05/13 09:32, 1.544383
2024/05/13 09:34, 2.094727
2024/05/13 09:36, 2.769669
2024/05/13 09:38, 3.532089
2024/05/13 09:40, 4.348583
2024/05/13 09:42, 5.195752
2024/05/13 09:44, 6.042545
2024/05/13 09:46, 6.892584
2024/05/13 09:48, 7.743048
2024/05/13 09:50, 8.55564
2024/05/13 09:52, 9.30767
2024/05/13 09:54, 10.05595
2024/05/13 09:56, 10.82708
2024/05/13 09:58, 11.6234
2024/05/13 10:00, 12.35058
2024/05/13 10:02, 12.95658
2024/05/13 10:04, 13.51699
2024/05/13 10:06, 13.96958
2024/05/13 10:08, 14.43863
2024/05/13 10:10, 14.86074
2024/05/13 10:12, 15.43315
2024/05/13 10:14, 15.88857
2024/05/13 10:16, 16.22377
2024/05/13 10:18, 16.43385
2024/05/13 10:20, 13.52478
2024/05/13 10:22, 13.60891
2024/05/13 10:24, 13.68353
2024/05/13 10:26, 13.60423
2024/05/13 10:28, 13.91073
2024/05/13 10:30, 13.89021
2024/05/13 10:32, 14.02605
2024/05/13 10:34, 14.51937
2024/05/13 10:36, 15.42827
2024/05/13 10:38, 15.84923
2024/05/13 10:40, 15.65591
2024/05/13 10:42, 16.17356
2024/05/13 10:44, 16.3227
2024/05/13 10:46, 16.39297
2024/05/13 10:48, 16.66936
2024/05/13 10:50, 16.66114
2024/05/13 10:52, 16.74408
2024/05/13 10:54, 16.87225
2024/05/13 10:56, 17.0456
2024/05/13 10:58, 16.98238
2024/05/13 11:00, 17.03283
2024/05/13 11:02, 17.06924
2024/05/13 11:04, 17.03072
2024/05/13 11:06, 17.14609
2024/05/13 11:08, 17.26832
2024/05/13 11:10, 17.182
2024/05/13 11:12, 17.15256
2024/05/13 11:14, 17.22586
2024/05/13 11:16, 17.08862
2024/05/13 11:18, 17.3295
2024/05/13 11:20, 17.20136
2024/05/13 11:22, 17.27628
2024/05/13 11:24, 17.23359
2024/05/13 11:26, 17.2219
2024/05/13 11:28, 17.5525
2024/05/13 11:30, 18.93376
2024/05/13 11:32, 18.99796
2024/05/13 11:34, 19.19165
2024/05/13 11:36, 19.38905
2024/05/13 11:38, 19.59763
2024/05/13 11:40, 19.79817
2024/05/13 11:42, 19.95369
2024/05/13 11:44, 20.03815
2024/05/13 11:46, 20.11838
2024/05/13 11:48, 20.18912
2024/05/13 11:50, 20.20455
2024/05/13 11:52, 20.25195
2024/05/13 11:54, 20.29315
2024/05/13 11:56, 20.33471
2024/05/13 11:58, 20.37234
2024/05/13 12:00, 20.35805
2024/05/13 12:02, 20.0457
2024/05/13 12:04, 20.32819
2024/05/13 12:06, 20.44544
2024/05/13 12:08, 20.53735
2024/05/13 12:10, 20.53281
2024/05/13 12:12, 20.53452
2024/05/13 12:14, 20.51551
2024/05/13 12:16, 20.50226
2024/05/13 12:18, 20.48859
2024/05/13 12:20, 20.49874
2024/05/13 12:22, 20.53349
2024/05/13 12:24, 20.55449
2024/05/13 12:26, 20.58326
2024/05/13 12:28, 20.64415
2024/05/13 12:30, 20.62733
2024/05/13 12:32, 20.61449
2024/05/13 12:34, 20.64214
2024/05/13 12:36, 20.64989
2024/05/13 12:38, 20.64939
2024/05/13 12:40, 20.66529
2024/05/13 12:42, 20.67149
2024/05/13 12:44, 20.65314
2024/05/13 12:46, 20.6448
2024/05/13 12:48, 20.66398
2024/05/13 12:50, 20.63252
2024/05/13 12:52, 20.62616
2024/05/13 12:54, 20.6527
2024/05/13 12:56, 20.70214
2024/05/13 12:58, 20.70815
2024/05/13 13:00, 20.64392
2024/05/13 13:02, 20.37135
2024/05/13 13:04, 20.49338
2024/05/13 13:06, 20.5394
2024/05/13 13:08, 20.51769
2024/05/13 13:10, 20.49456
2024/05/13 13:12, 20.53382
2024/05/13 13:14, 20.58745
2024/05/13 13:16, 20.65655
2024/05/13 13:18, 20.68307
2024/05/13 13:20, 20.79634
2024/05/13 13:22, 20.88744
2024/05/13 13:24, 20.91549
2024/05/13 13:26, 20.86406
2024/05/13 13:28, 20.79126
2024/05/13 13:30, 20.75572
2024/05/13 13:32, 20.74741
2024/05/13 13:34, 20.76081
2024/05/13 13:36, 20.80924
2024/05/13 13:38, 20.829
2024/05/13 13:40, 20.88008
2024/05/13 13:42, 20.87404
2024/05/13 13:44, 20.8732
2024/05/13 13:46, 20.84029
2024/05/13 13:48, 20.84029
2024/05/13 13:50, 20.84482
2024/05/13 13:52, 20.86801
2024/05/13 13:54, 20.88633
2024/05/13 13:56, 20.87587
2024/05/13 13:58, 20.89267
2024/05/13 14:00, 20.88935
2024/05/13 14:02, 20.71764
2024/05/13 14:04, 20.84951
2024/05/13 14:06, 20.95385
2024/05/13 14:08, 20.96673
2024/05/13 14:10, 20.96582
2024/05/13 14:12, 20.96163
2024/05/13 14:14, 20.94346
2024/05/13 14:16, 20.94113
2024/05/13 14:18, 20.95457
2024/05/13 14:20, 20.98757
2024/05/13 14:22, 21.0136
2024/05/13 14:24, 21.05752
2024/05/13 14:26, 21.06556
2024/05/13 14:28, 21.06786
2024/05/13 14:30, 21.11002
2024/05/13 14:32, 21.11753
2024/05/13 14:34, 21.13202
2024/05/13 14:36, 21.12515
2024/05/13 14:38, 21.13524
2024/05/13 14:40, 21.12285
2024/05/13 14:42, 21.12099
2024/05/13 14:44, 21.12808
2024/05/13 14:46, 21.15547
2024/05/13 14:48, 21.15582
2024/05/13 14:50, 21.15241
2024/05/13 14:52, 21.15862
2024/05/13 14:54, 21.16354
2024/05/13 14:56, 21.17238
2024/05/13 14:58, 21.19459
2024/05/13 15:00, 21.18832
2024/05/13 15:02, 20.98386
2024/05/13 15:04, 21.126
2024/05/13 15:06, 21.13377
2024/05/13 15:08, 21.12705
2024/05/13 15:10, 21.13013
2024/05/13 15:12, 21.1511
2024/05/13 15:14, 21.12854
2024/05/13 15:16, 21.15172
2024/05/13 15:18, 21.15974
2024/05/13 15:20, 21.16109
2024/05/13 15:22, 21.16837
2024/05/13 15:24, 21.19187
2024/05/13 15:26, 21.17446
2024/05/13 15:28, 21.16638
2024/05/13 15:30, 21.16956
2024/05/13 15:32, 21.16131
2024/05/13 15:34, 21.17116
2024/05/13 15:36, 21.17047
2024/05/13 15:38, 21.16544
2024/05/13 15:40, 21.14415
2024/05/13 15:42, 21.1642
2024/05/13 15:44, 21.16564
2024/05/13 15:46, 21.14408
2024/05/13 15:48, 21.12855
2024/05/13 15:50, 21.12195
2024/05/13 15:52, 21.13436
2024/05/13 15:54, 21.11734
2024/05/13 15:56, 21.11064
2024/05/13 15:58, 21.10392
2024/05/13 16:00, 21.05393
2024/05/13 16:02, 20.89368
2024/05/13 16:04, 20.97809
2024/05/13 16:06, 21.06394
2024/05/13 16:08, 21.08364
2024/05/13 16:10, 21.07825
2024/05/13 16:12, 21.06705
2024/05/13 16:14, 21.08884
2024/05/13 16:16, 21.11151
2024/05/13 16:18, 21.10971
2024/05/13 16:20, 21.10764
2024/05/13 16:22, 21.10862
2024/05/13 16:24, 21.11853
2024/05/13 16:26, 21.11835
2024/05/13 16:28, 21.10725
2024/05/13 16:30, 21.1061
2024/05/13 16:32, 21.11246
2024/05/13 16:34, 21.11708
2024/05/13 16:36, 21.13148
2024/05/13 16:38, 21.10523
2024/05/13 16:40, 21.11741
2024/05/13 16:42, 21.13607
2024/05/13 16:44, 21.1571
2024/05/13 16:46, 21.14283
2024/05/13 16:48, 21.16653
2024/05/13 16:50, 21.12397
2024/05/13 16:52, 21.11439
2024/05/13 16:54, 21.11519
2024/05/13 16:56, 21.09503
2024/05/13 16:58, 21.08565
2024/05/13 17:00, 21.0346
2024/05/13 17:02, 20.80672
2024/05/13 17:04, 20.93104
2024/05/13 17:06, 20.9935
2024/05/13 17:08, 20.98364
2024/05/13 17:10, 20.98652
2024/05/13 17:12, 20.97149
2024/05/13 17:14, 20.94124
2024/05/13 17:16, 20.93815
2024/05/13 17:18, 20.91323
2024/05/13 17:20, 20.92816
2024/05/13 17:22, 20.96398
2024/05/13 17:24, 20.90817
2024/05/13 17:26, 20.91028
2024/05/13 17:28, 20.89477
2024/05/13 17:30, 20.88221
2024/05/13 17:32, 20.87852
2024/05/13 17:34, 20.8753
2024/05/13 17:36, 20.86741
2024/05/13 17:38, 20.85811
2024/05/13 17:40, 20.87063
2024/05/13 17:42, 20.86258
2024/05/13 17:44, 20.84979
2024/05/13 17:46, 20.85172
2024/05/13 17:48, 20.85657
2024/05/13 17:50, 20.81561
2024/05/13 17:52, 20.776
2024/05/13 17:54, 20.78082
2024/05/13 17:56, 20.75661
2024/05/13 17:58, 20.77018
2024/05/13 18:00, 20.73494
2024/05/13 18:02, 20.54527
2024/05/13 18:04, 20.69927
2024/05/13 18:06, 20.74285
2024/05/13 18:08, 20.75898
2024/05/13 18:10, 20.75526
2024/05/13 18:12, 20.73579
2024/05/13 18:14, 20.73756
2024/05/13 18:16, 20.73269
2024/05/13 18:18, 20.71709
2024/05/13 18:20, 20.83348